Weather Roundup
Issued by NWS

Home | Current Version | Previous Version | Graphics & Text | Print | Product List | Glossary Off
Versions: 1 2 3 4 5 6 7 8 9 10 11 12 13 14 15 16 17 18 19 20 21 22 23 24 25 26 27 28 29 30 31 32 33 34 35 36 37 38 39 40 41 42 43 44 45 46 47 48 49 50

059
NZUS93 KARX 240159
HRRWXR

CURRENT HOURLY OBSERVATIONS ACROSS
MUCH OF THE UPPER MISSISSIPPI VALLEY
NATIONAL WEATHER SERVICE LA CROSSE WI
900 PM CDT SAT JUL 23 2016


...SOUTHEAST MINNESOTA...


CITY           SKY/WX    TMP DP  RH WIND       PRES   REMARKS
ROCHESTER      MOCLDY    73  70  90 S8        29.82F
ROCHESTER/MAYO MOCLDY    73  72  94 SE6       29.82S
WINONA         MOCLDY    73  70  88 SE3       29.82R
AUSTIN         CLOUDY    73  70  88 SE3       29.81R
ALBERT LEA     MOCLDY    75  73  94 SE5       29.79F
DODGE CENTER   PTCLDY    73  70  88 SE8       29.82S
PRESTON        PTCLDY    71  67  88 SE6       29.84S
OWATONNA       CLEAR     75  70  83 SE5       29.80R
FARIBAULT      CLOUDY    77  72  83 E5        29.80R
$$

...ELSEWHERE IN MINNESOTA...


CITY           SKY/WX    TMP DP  RH WIND       PRES   REMARKS
MINNEAPOLIS    PTCLDY    75  71  87 SE7       29.78S
INTNL FALLS    CLOUDY    72  65  78 SE7       29.73F
DULUTH         CLOUDY    65  60  84 E10       29.84F
RED WING       CLEAR     75  70  83 SE8       29.79S
REDWOOD FALLS  CLEAR     82  76  81 S8        29.73F
MANKATO        CLOUDY    79  72  78 SE9       29.77S
WORTHINGTON    CLEAR     81  77  88 S6        29.79R
FAIRMONT       CLEAR     79  77  94 E6        29.77S
$$

...SOUTHWEST WISCONSIN...


CITY           SKY/WX    TMP DP  RH WIND       PRES   REMARKS
LA CROSSE      PTCLDY    74  68  81 S13       29.81F
PRAIRIE DU CHI CLOUDY    70  69  96 CALM      29.84F
BOSCOBEL       CLOUDY    72  70  93 CALM      29.86F
LONE ROCK      NOT AVBL
PLATTEVILLE    CLOUDY    71  71 100 E9        29.88F
FORT MC COY    CLOUDY    72  68  88 SE5       29.84F
MAUSTON-NEW LI CLOUDY    72  70  95 SE8       29.86F FOG
VIROQUA        MOCLDY    69  69 100 SE9       29.87F
WIS DELLS      NOT AVBL
$$

...ELSEWHERE IN WISCONSIN...


CITY           SKY/WX    TMP DP  RH WIND       PRES   REMARKS
MILWAUKEE      TSTM      75  71  87 W8        29.97R
MADISON        LGT RAIN  72  70  93 SE6       29.91F
GREEN BAY      CLOUDY    76  76 100 S5        29.89R
EAU CLAIRE     NOT AVBL
BLACK RVR FLS  MOCLDY    72  70  95 CALM      29.84S
MEDFORD        CLOUDY    68  68 100 S3        29.89R
WAUSAU         CLOUDY    71  66  84 SE5       29.87F
WIS RAPIDS     CLOUDY    71  66  84 S3        29.88S
MARSHFIELD     CLOUDY    70  66  87 SE6       29.87S
RICE LAKE      CLOUDY    70  67  91 CALM      29.85S
$$

...NORTHEAST IOWA...


CITY           SKY/WX    TMP DP  RH WIND       PRES   REMARKS
WATERLOO       CLEAR     75  71  87 SE9       29.79F
DUBUQUE        CLOUDY    72  70  93 SE10      29.88F
DECORAH        MOCLDY    72  72 100 SE6       29.83R
MASON CITY     CLOUDY    77  76  96 SE8       29.81R
CHARLES CITY   PTCLDY    73  73 100 SE9       29.82S
OELWEIN        CLEAR     73  72  94 SE13      29.83F
$$

...ELSEWHERE IN IOWA...


CITY           SKY/WX    TMP DP  RH WIND       PRES   REMARKS
DES MOINES     PTCLDY    84  77  79 S7        29.80S HX  94
IOWA CITY      PTCLDY    80  75  84 SE5       29.86S
FORT DODGE     CLOUDY    82  77  83 S10       29.79S HX  91
MARSHALLTOWN   CLEAR     84  79  85 S8        29.80F HX  96
CEDAR RAPIDS   CLEAR     75  74  96 SE7       29.83F
$$

...NORTHERN ILLINOIS...


CITY           SKY/WX    TMP DP  RH WIND       PRES   REMARKS
CHICAGO-OHARE  CLOUDY    74  69  85 SE13      29.93F
CHICAGO-MIDWAY CLOUDY    75  70  84 E13       29.94F
MOLINE         CLOUDY    80  71  74 NE14G22   29.89R THUNDER
ROCKFORD       TSTM      71  69  93 S15G25    29.95F
PEORIA         PTCLDY    84  77  79 S3        29.92R HX  94
$$

NOTE: "FAIR" INDICATES FEW OR NO CLOUDS BELOW 12,000 FEET WITH NO
SIGNIFICANT WEATHER AND/OR OBSTRUCTIONS TO VISIBILITY. WIND
SPEEDS ARE IN MILES-PER-HOUR.




USA.gov is the U.S. government's official web portal to all federal, state and local government web resources and services.